Regional Weather Roundup
Issued by NWS

Home | Current Version | Previous Version | Text Only | Print | Product List | Glossary Off
Versions: 1 2 3 4 5 6 7 8 9 10 11 12 13 14 15 16 17 18 19 20 21 22 23 24 25 26 27 28 29 30 31 32 33 34 35 36 37 38 39 40 41 42 43 44 45 46 47 48 49 50

000
ASUS45 KCYS 270410
RWRWY

WYOMING REGIONAL WEATHER ROUNDUP
NATIONAL WEATHER SERVICE CHEYENNE WY
1000 PM MDT FRI MAY 26 2017

NOTE:  "FAIR" INDICATES FEW OR NO CLOUDS BELOW 12,000 FEET
WITH NO SIGNIFICANT WEATHER AND/OR OBSTRUCTIONS TO VISIBILITY.

WYZ001-270500-
YELLOWSTONE NATIONAL PARK

CITY           SKY/WX    TMP DP  RH WIND       PRES   REMARKS
LK YELLOWSTONE   N/A     30  30 100 CALM      30.11R
W YELLOWSTONE  NOT AVBL

$$
WYZ002>013-054>058-071-098>099-270500-
NORTHERN WYOMING

CITY           SKY/WX    TMP DP  RH WIND       PRES   REMARKS
JACKSON        MOCLDY    39  37  93 N7        30.07R WCI  34
CODY           FAIR      45  37  73 SW3       30.05R
GREYBULL       CLOUDY    50  41  71 CALM      30.01R
WORLAND        CLOUDY    48  44  86 S7        30.02R
SHERIDAN       CLOUDY    47  43  86 SW8       30.01S
BUFFALO        CLOUDY    45  38  76 NW10      30.05R
GILLETTE       CLOUDY    47  45  93 W6        30.02R
HULETT         CLOUDY    52  41  66 SW6       30.01R
NEWCASTLE      LGT RAIN  46  45  93 W5        30.02R

$$
WYZ014>020-022>026-101>103-270500-
CENTRAL WYOMING

CITY           SKY/WX    TMP DP  RH WIND       PRES   REMARKS
BIG PINEY      FAIR      38  31  76 N12       30.05R WCI  30
PINEDALE       FAIR      34  30  86 NW6       30.06R WCI  29
DUBOIS         CLOUDY    36  34  93 SE6       30.06R WCI  31
LANDER         CLOUDY    43  40  89 MISG      30.03S
RIVERTON       CLOUDY    43  39  86 CALM      30.05R
CASPER         CLOUDY    43  41  93 N3        30.02R
DOUGLAS        FAIR      45  42  89 NE5       30.01R

$$
WYZ021-027>030-104>119-270500-
SOUTHERN WYOMING

CITY           SKY/WX    TMP DP  RH WIND       PRES   REMARKS
EVANSTON       FAIR      43  31  62 W10       30.06R
KEMMERER         N/A     37  32  81 NE5       30.07R WCI  34
FORT BRIDGER   FAIR      42  31  64 W8        30.08R
ROCK SPRINGS   FAIR      42  36  79 NE12G20   30.03R
DIXON            N/A     44  40  85 E17       30.05S
RAWLINS        MOCLDY    43  39  86 SE6       30.05R
SARATOGA       CLOUDY    39  39 100 SE12G18   30.05F WCI  32
LARAMIE        LGT RAIN  39  37  92 N14       30.06S WCI  31
CHEYENNE       CLOUDY    46  43  89 N16G23    30.05R
TORRINGTON     LGT RAIN  48  46  93 N12       30.01R
PINE BLUFFS    CLOUDY    46  46 100 N10       30.01R

$$



USA.gov is the U.S. government's official web portal to all federal, state and local government web resources and services.